EHI
0 0 0 0 0 0 0 0 0 0 0 0 0 0 0 0 0 0 0 0 0 0 0 0 0 0 0 0 0 0 0 0 0 0 0 0 0 0
0 0 0 0 0 0 0 0 0 0 0 0 0 0 0 0 0 0 0 0 0 0 0 0 0 0 0 0 0 0 0 0 0 0 0 0 0 0
0 0 0 0 0 0 0 0 0 0 0 0 0 0 0 0 0 0 0 0 0 0 0 0 0 0 0 0 0 0 0 0 0 0 0 0 0 0
0 0 0 0 0 0 0 0 0 0 0 0 0 0 0 0 0 0 0 0 0 0 0 0 0 0 0 0 0 0 0 0 0 0 0 0 0 0
0 0 0 0 0 0 0 0 0 0 0 0 0 0 0 0 0 0 0 0 0 0 0 0 0 0 0 0 0 0 0 0 0 0 0 0 0 0
0 0 0 0 0 0 0 0 0 0 0 0 0 0 0 0 0 0 0 0 0 0 0 0 0 0 0 0 0 0 0 0 0 0 0 0 0 0
0 0 0 0 0 0 0 0 0 0 0 0 0 0 0 0 0 0 0 0 0 0 0 0 0 0 0 0 0 0 0 0 0 0 0 0 0 0
0 0 0 0 0 0 0 0 0 0 0 0 0 0 0 0 0 0 0 0 0 0 0 0 0 0 0 0 0 0 0 0 0 0 0 0 0 0
0 0 0 0 0 0 0 0 0 0 0 0 0 0 0 0 0 0 0 0 0 0 0 0 0 0 0 0 0 0 0 0 0 0 0 0 0 0
0 0 0 0 0 0 0 0 0 0 0 0 0 0 0 0 0 0 0 0 0 0 0 0 0 0 0 0 0 0 0 0 0 0 0 0 0 0
0 0 0 0 0 0 0 0 0 0 0 0 0 0 0 0 0 0 0 0 0 0 0 0 0 0 0 0 0 0 0 0 0 0 0 0 0 0
0 0 0 0 0 0 0 0 0 0 0 0 0 0 0 0 0 0 0 0 0 0 0 0 0 0 0 0 0 0 0 0 0 0 0 0 0 0
0 0 0 0 0 0 0 0 0 0 0 0 0 0 0 0 0 0 0 0 0 0 0 0 0 0 0 0 0 0 0 0 0 0 0 0 0 0
0 0 0 0 0 0 0 0 0 0 0 0 0 0 0 0 0 0 0 0 0 0 0 0 0 0 0 0 0 0 0 0 0 0 0 0 0 0
0 0 0 0 0 0 0 0 0 0 0 0 0 0 0 0 0 0 0 0 0 0 0 0 0 0 0 0 0 0 0 0 0 0 0 0 0 0
0 0 0 0 0 0 0 0 0 0 0 0 0 0 0 0 0 0 0 0 0 0 0 0 0 0 0 0 0 0 0 0 0 0 0 0 0 0
0 0 0 0 0 0 0 0 0 0 0 0 0 0 0 0 0 0 0 0 0 0 0 0 0 0 0 0 0 0 0 0 0 0 0 0 0 0
0 0 0 0 0 0 0 0 0 0 0 0 0 0 0 0 0 0 0 0 0 0 0 0 0 0 0 0 0 0 0 0 0 0 0 0 0 0
0 0 0 0 0 0 0 0 0 0 0 0 0 0 0 0 0 0 0 0 0 0 0 0 0 0 0 0 0 0 0 0 0 0 0 0 0 0
0 0 0 0 0 0 0 0 0 0 0 0 0 0 0 0 0 0 0 0 0 0 0 0 0 0 0 0 0 0 0 0 0 0 0 0 0 0
0 0 0 0 0 0 0 0 0 0 0 0 0 0 0 0 0 0 0 0 0 0 0 0 0 0 0 0 0 0 0 0 0 0 0 0 0 0
0 0 0 0 0 0 0 0 0 0 0 0 0 0 0 0 0 0 0 0 0 0 0 0 0 0 0 0 0 0 0 0 0 0 0 0 0 0
0 0 0 0 0 0 0 0 0 0 0 0 0 0 0 0 0 0 0 0 0 0 0 0 0 0 0 0 0 0 0 0 0 0 0 0 0 0
Wind_Speed
6 6 5 4 5 4 4 4 5 4 4 4 3 4 5 4 7 5 5 7 7 5 3 1 2 3 4 5 6 7 7 7 7 7 7 8 7 7
4 5 5 4 4 5 4 4 4 5 4 3 4 3 4 5 8 6 6 9 9 7 5 4 2 2 2 3 4 4 5 5 5 6 7 7 7 8
3 4 5 5 5 5 4 4 4 4 4 2 1 2 4 4 4 5 4 5 4 8 7 6 5 4 3 2 1 2 2 3 3 4 5 5 6 6
2 3 3 3 5 5 5 6 5 5 4 4 2 2 3 3 4 4 4 5 4 8 9 8 7 6 5 4 3 2 1 1 1 2 3 3 4 4
2 2 2 3 4 3 5 5 5 5 4 4 3 2 1 2 2 2 3 3 4 6 9 10 10 9 8 7 6 5 3 2 1 0 1 1 3 3
1 1 2 3 3 3 3 4 4 4 4 4 3 2 2 2 2 2 2 3 4 4 5 6 9 11 10 9 9 8 6 5 4 3 2 1 2 2
1 1 1 3 4 3 2 3 3 3 3 3 3 2 3 2 3 3 3 2 3 4 3 4 5 5 6 9 11 10 9 8 7 6 4 3 3 2
2 2 2 2 2 4 4 4 5 4 3 3 2 3 3 3 3 3 2 2 3 3 4 4 4 6 6 6 10 11 11 10 9 8 7 6 5 4
4 3 2 2 3 2 3 4 4 6 6 3 3 3 3 4 4 4 4 4 4 3 4 3 3 5 6 7 14 15 14 13 12 11 10 9 7 6
4 4 4 3 3 3 3 2 3 4 5 4 4 4 4 4 4 5 5 4 2 2 4 3 3 4 3 6 13 16 15 14 13 13 12 10 9 8
3 3 4 3 4 5 4 3 3 3 5 7 8 7 7 7 6 3 3 3 3 3 5 4 2 2 2 3 7 14 14 14 14 14 13 12 11 9
2 2 4 4 4 4 4 4 4 3 1 1 3 4 4 5 7 6 5 4 3 3 4 4 2 2 3 2 1 3 7 11 13 13 13 13 12 7
2 1 1 2 2 3 4 4 4 2 1 1 1 1 1 1 2 3 4 4 4 4 3 5 3 2 2 2 1 1 3 4 6 8 11 13 13 11
1 0 0 1 2 1 2 2 2 1 1 0 0 1 1 1 1 1 2 3 3 3 3 5 3 4 3 2 2 1 1 3 4 5 5 8 11 13
1 1 3 5 5 3 3 2 2 2 1 0 0 1 1 1 0 1 1 1 0 1 1 4 4 3 3 3 3 2 2 2 4 4 5 6 6 6
3 5 7 7 4 3 3 3 2 1 1 0 0 0 1 1 1 1 1 1 1 1 2 1 2 3 3 4 3 3 3 2 2 4 4 4 5 6
3 3 3 3 3 3 2 2 2 2 2 1 1 1 1 1 1 1 1 1 0 1 2 1 1 1 3 3 3 4 3 3 3 3 3 4 5 6
4 3 3 3 3 3 2 2 2 2 1 1 1 1 1 1 1 1 1 0 1 1 1 1 1 1 1 3 5 4 3 3 2 3 3 3 4 5
6 5 4 4 3 3 3 2 2 2 2 2 2 2 1 1 1 1 1 1 1 2 2 1 1 1 2 3 3 5 3 2 2 2 3 4 4 3
5 5 4 4 4 4 3 3 3 3 3 3 3 2 2 1 1 1 1 2 2 2 2 2 2 2 3 3 3 2 5 4 2 3 2 3 4 5
5 5 5 4 4 4 4 4 4 4 4 3 3 3 3 2 2 2 2 3 2 2 3 3 3 4 3 2 3 3 2 4 5 3 2 2 2 2
5 5 5 5 5 5 4 4 4 4 4 3 3 3 3 2 3 3 3 3 2 2 3 3 3 2 1 2 4 4 3 2 3 5 5 4 2 2
4 4 5 5 5 4 4 5 5 4 4 4 3 3 3 3 3 2 2 2 3 3 3 3 2 1 2 2 4 4 5 4 2 2 1 1 2 2
Wind_Direction
209 209 209 204 197 196 185 173 166 190 232 240 231 219 202 193 197 196 202 218 213 211 207 180 108 78 72 70 66 59 52 48 46 44 43 43 42 41
202 205 208 203 202 198 196 192 182 180 206 227 223 211 193 201 201 194 202 217 221 217 217 210 186 145 111 93 81 67 56 46 44 43 40 44 46 45
204 206 211 200 203 204 197 193 192 180 202 214 202 184 180 189 187 186 195 207 221 223 222 223 219 212 201 178 132 91 64 46 40 37 34 42 51 48
206 206 212 205 207 205 201 202 198 190 191 198 189 182 188 186 177 186 195 208 213 227 227 228 228 227 225 220 209 197 166 70 41 34 27 43 61 56
202 206 210 204 211 207 203 203 200 197 190 183 178 168 153 138 145 185 195 207 214 225 229 229 229 229 229 227 221 216 213 214 207 162 21 54 72 61
202 211 210 212 219 212 208 204 195 193 186 181 172 163 150 144 151 175 202 209 222 218 223 221 225 231 231 230 228 224 219 219 217 212 211 170 119 85
221 231 229 217 216 203 192 192 188 185 178 177 173 166 168 169 193 185 205 197 227 213 213 219 219 225 228 232 233 230 222 219 220 220 216 208 194 178
209 231 252 248 235 219 213 199 192 188 188 180 181 194 196 193 179 183 179 170 247 205 197 230 202 229 229 224 229 228 225 221 218 220 219 214 215 209
204 210 229 230 222 220 238 231 219 215 203 182 189 206 203 199 187 192 197 204 221 185 172 237 202 236 232 228 227 229 227 223 219 217 218 216 217 218
204 205 216 235 223 205 207 222 233 234 225 216 213 219 215 205 198 199 202 212 224 182 171 228 213 231 239 226 230 227 224 221 218 216 216 216 215 215
208 208 215 226 238 211 196 224 252 261 251 238 235 239 236 226 205 187 191 201 232 221 188 215 230 229 248 243 234 228 223 218 216 216 214 212 212 212
205 218 224 227 237 215 197 208 241 261 251 261 253 261 253 245 221 206 205 208 216 234 189 194 210 193 272 258 257 230 225 223 219 218 215 211 206 203
188 212 256 269 244 214 189 197 229 236 213 220 257 284 288 269 243 219 212 211 215 230 185 178 194 195 237 282 290 250 219 216 213 221 219 215 206 197
175 203 343 50 84 121 166 209 226 171 124 111 326 317 312 302 286 257 236 230 229 234 197 181 194 191 200 233 264 259 242 226 214 217 215 215 216 210
87 90 83 80 75 65 56 75 92 97 102 83 314 309 301 305 357 38 38 21 319 282 216 197 204 198 201 221 235 221 239 234 216 219 214 213 214 211
64 77 79 72 65 55 49 50 57 85 114 114 24 2 10 31 48 47 33 14 11 342 2 337 230 209 217 227 230 235 214 230 212 213 218 223 221 219
77 60 50 44 42 36 38 44 46 55 63 61 71 61 45 44 35 29 33 31 355 320 320 340 351 280 239 225 239 242 232 229 220 196 201 229 229 223
72 63 55 51 47 39 38 36 35 35 33 43 53 52 43 35 22 14 12 340 319 312 305 300 310 321 301 257 224 243 243 241 222 200 203 234 254 228
63 57 50 44 41 40 37 37 30 20 27 43 45 35 26 22 20 6 353 336 321 311 301 291 266 265 285 294 280 215 223 232 209 209 215 226 253 251
50 50 44 38 37 36 34 33 32 31 35 39 39 35 28 26 20 1 349 331 318 312 309 298 267 258 260 278 287 282 221 230 232 243 234 228 252 263
44 43 39 36 35 36 36 36 39 39 35 34 30 24 18 17 10 354 340 330 322 312 308 302 290 284 269 265 274 277 269 230 235 246 249 247 258 258
43 43 39 37 33 30 30 31 34 34 28 25 16 11 8 8 1 353 346 336 323 309 301 299 311 318 274 266 281 288 288 284 259 252 252 247 257 272
38 40 39 34 31 26 26 29 31 27 20 13 7 0 357 351 342 337 333 329 325 325 322 318 321 307 283 280 288 293 295 296 289 286 283 359 326 328